HK4D-15 Weather Reports


time (UTC)temp
C
wind
direction
speed
KPH
gust
KPH
rain 1hr
cm
rain 24hr
cm
rain mn
cm
humidity
%
barometer
mb
20260504150159 16 0 0.0 0.0 0.00 0.00 0.00 88 1015.0
20260504140654 15 0 0.0 0.0 0.00 0.00 0.00 95 1016.0
20260504100429 15 20 4.8 0.0 0.00 0.00 0.00 95 1015.0
20260504081420 15 20 4.8 0.0 0.00 0.00 0.00 97 1015.0
20260504080320 15 20 4.8 0.0 0.00 0.00 0.00 99 1015.0
20260504060208 16 20 4.8 0.0 0.15 0.00 0.00 98 1016.0
20260504050704 16 20 4.8 0.0 0.23 0.00 0.00 96 1017.0
20260504045603 16 20 4.8 0.0 0.10 0.00 0.00 94 1017.0
20260504044503 16 20 4.8 0.0 0.15 0.00 0.00 94 1017.0
20260504043402 16 20 4.8 0.0 0.03 0.00 0.00 94 1017.0
20260504042300 16 20 4.8 0.0 0.00 0.00 0.00 94 1018.0
20260504041200 16 20 4.8 0.0 0.00 0.00 0.00 94 1018.0
20260504040056 16 20 4.8 0.0 0.00 0.00 0.00 94 1018.0
20260504034956 16 20 4.8 0.0 0.00 0.00 0.00 94 1018.0
20260504033855 16 20 4.8 0.0 0.00 0.00 0.00 94 1018.0
20260504032754 16 20 4.8 0.0 0.00 0.00 0.00 94 1018.0
20260504031654 16 20 4.8 0.0 0.00 0.00 0.00 94 1018.0
20260504030552 16 20 4.8 0.0 0.00 0.00 0.00 94 1018.0
20260504025451 16 10 4.8 0.0 0.00 0.00 0.00 94 1018.0
20260504024350 16 10 4.8 0.0 0.00 0.00 0.00 94 1018.0
20260504023249 16 10 4.8 0.0 0.00 0.00 0.00 94 1018.0
20260504022149 16 10 4.8 0.0 0.00 0.00 0.00 94 1017.0
20260504021048 16 10 4.8 0.0 0.00 0.00 0.00 94 1017.0
20260504015948 17 0 3.2 0.0 0.03 0.00 0.00 88 1017.0
20260504014847 17 0 3.2 0.0 0.03 0.00 0.00 88 1017.0
20260504013747 17 0 3.2 0.0 0.00 0.00 0.00 88 1017.0
20260504012646 17 0 3.2 0.0 0.00 0.00 0.00 88 1016.0
20260504011544 17 0 3.2 0.0 0.00 0.00 0.00 88 1016.0
20260504010444 18 0 3.2 0.0 0.00 0.00 0.00 77 1016.0
20260504005342 18 0 3.2 0.0 0.00 0.00 0.00 77 1016.0
20260504004241 18 0 3.2 0.0 0.00 0.00 0.00 77 1016.0
20260504003141 18 0 3.2 0.0 0.00 0.00 0.00 77 1016.0
20260504002040 18 0 3.2 0.0 0.00 0.00 0.00 77 1015.0
20260504000940 18 0 3.2 0.0 0.00 0.00 0.00 77 1015.0
20260503235838 21 0 4.8 0.0 0.00 0.00 0.00 64 1015.0
20260503234737 21 0 4.8 0.0 0.00 0.00 0.00 64 1015.0
20260503233636 21 0 4.8 0.0 0.00 0.00 0.00 64 1015.0
20260503232535 21 0 4.8 0.0 0.00 0.00 0.00 64 1014.0
20260503231435 21 0 4.8 0.0 0.00 0.00 0.00 64 1014.0
20260503230334 22 0 6.4 0.0 0.00 0.00 0.00 53 1014.0
20260503225233 22 0 6.4 0.0 0.00 0.00 0.00 53 1014.0
20260503224133 22 0 6.4 0.0 0.00 0.00 0.00 53 1014.0
20260503223032 22 0 6.4 0.0 0.00 0.00 0.00 53 1013.0
20260503221931 22 0 6.4 0.0 0.00 0.00 0.00 53 1012.0
20260503220825 22 0 6.4 0.0 0.00 0.00 0.00 53 1012.0
20260503215724 22 0 6.4 0.0 0.00 0.00 0.00 56 1012.0
20260503214624 22 0 6.4 0.0 0.00 0.00 0.00 56 1012.0
20260503213521 22 0 6.4 0.0 0.00 0.00 0.00 56 1012.0
20260503212420 22 0 6.4 0.0 0.00 0.00 0.00 56 1012.0
20260503211319 22 0 6.4 0.0 0.00 0.00 0.00 56 1012.0
20260503210219 23 0 4.8 0.0 0.00 0.00 0.00 53 1012.0
20260503205118 23 0 4.8 0.0 0.00 0.00 0.00 53 1012.0
20260503204017 23 0 4.8 0.0 0.00 0.00 0.00 53 1012.0
20260503202916 23 0 4.8 0.0 0.00 0.00 0.00 53 1012.0
20260503201816 23 0 4.8 0.0 0.00 0.00 0.00 53 1012.0
20260503200713 22 0 9.7 0.0 0.00 0.00 0.00 56 1012.0
20260503195613 22 0 9.7 0.0 0.00 0.00 0.00 56 1012.0
20260503194512 22 0 9.7 0.0 0.00 0.00 0.00 56 1012.0
20260503193410 22 0 9.7 0.0 0.00 0.00 0.00 57 1012.0
20260503192310 22 0 9.7 0.0 0.00 0.00 0.00 57 1012.0
20260503191209 22 0 9.7 0.0 0.00 0.00 0.00 58 1012.0
20260503190108 21 140 8.0 0.0 0.00 0.00 0.00 60 1012.0
20260503185008 21 140 8.0 0.0 0.00 0.00 0.00 60 1012.0
20260503183908 21 140 8.0 0.0 0.00 0.00 0.00 60 1013.0
20260503182806 21 140 8.0 0.0 0.00 0.00 0.00 60 1014.0
20260503181700 21 140 8.0 0.0 0.00 0.00 0.00 61 1014.0
20260503180559 21 140 8.0 0.0 0.00 0.00 0.00 62 1014.0
20260503175459 21 0 8.0 0.0 0.00 0.00 0.00 64 1014.0
20260503174357 21 0 8.0 0.0 0.00 0.00 0.00 64 1014.0
20260503173256 21 0 8.0 0.0 0.00 0.00 0.00 64 1015.0
20260503172156 21 0 8.0 0.0 0.00 0.00 0.00 64 1015.0
20260503171056 21 0 8.0 0.0 0.00 0.00 0.00 65 1015.0